When you browse on this site, cookies collect data to enhance your experience and personalize the content and advertising you see.
Visit our Privacy Policy to learn more. By continuing to use the site, you agree to this use of cookies and data.
  • In Hungary
  • List of Countries
  • For 7 days
  • Water Temperature
  • Satellite Maps
  • Weather Map
  • News
  • Weather Widgets
  • user-avatar
    Login

    Hourly Weather Oyem

    Today, 21 March, Thursday

    Time Temperature Precipitation Wind Pressure Humidity
    00:00 +23°C° 0 mm 1 mps 702 mmHg 97%
    01:00 +23°C° 0 mm 1 mps 702 mmHg 97%
    02:00 +22°C° 0 mm 1 mps 701 mmHg 97%
    03:00 +22°C° 0 mm 1 mps 701 mmHg 97%
    04:00 +20°C° 0 mm 0 mps 701 mmHg 97%
    05:00 +20°C° 0 mm 0 mps 701 mmHg 96%
    06:00 +20°C° 0 mm 0 mps 702 mmHg 96%
    07:00 +21°C° 0 mm 0 mps 702 mmHg 94%
    08:00 +23°C° 0 mm 0 mps 703 mmHg 83%
    09:00 +26°C° 0 mm 0 mps 703 mmHg 72%
    10:00 +31°C° 0 mm 1 mps 704 mmHg 60%
    11:00 +31°C° 0 mm 1 mps 703 mmHg 57%
    12:00 +32°C° 0 mm 1 mps 703 mmHg 53%
    13:00 +33°C° 0 mm 1 mps 702 mmHg 50%
    14:00 +32°C° 0.2 mm 1 mps 702 mmHg 57%
    15:00 +31°C° 0.2 mm 1 mps 701 mmHg 63%
    16:00 +30°C° 0.2 mm 1 mps 701 mmHg 70%
    17:00 +28°C° 0.7 mm 1 mps 701 mmHg 78%
    18:00 +26°C° 0.7 mm 1 mps 701 mmHg 86%
    19:00 +24°C° 0.7 mm 1 mps 701 mmHg 94%
    20:00 +24°C° 0 mm 1 mps 701 mmHg 95%
    21:00 +24°C° 0 mm 1 mps 702 mmHg 95%
    22:00 +21°C° 0 mm 0 mps 702 mmHg 96%
    23:00 +23°C° 0 mm 1 mps 702 mmHg 96%

    Tomorrow, 22 March, Friday

    Time Temperature Precipitation Wind Pressure Humidity
    00:00 +23°C° 0 mm 1 mps 702 mmHg 97%
    01:00 +23°C° 0 mm 1 mps 702 mmHg 97%
    02:00 +23°C° 0 mm 1 mps 701 mmHg 97%
    03:00 +22°C° 0 mm 1 mps 701 mmHg 98%
    04:00 +22°C° 0 mm 1 mps 701 mmHg 98%
    05:00 +22°C° 0 mm 1 mps 701 mmHg 97%
    06:00 +22°C° 0 mm 1 mps 702 mmHg 97%
    07:00 +23°C° 0 mm 1 mps 702 mmHg 96%
    08:00 +25°C° 0 mm 1 mps 703 mmHg 85%
    09:00 +27°C° 0 mm 1 mps 703 mmHg 74%
    10:00 +30°C° 0 mm 2 mps 704 mmHg 63%
    11:00 +31°C° 0 mm 2 mps 703 mmHg 58%
    12:00 +34°C° 0 mm 2 mps 703 mmHg 53%
    13:00 +35°C° 0 mm 2 mps 702 mmHg 48%
    14:00 +34°C° 0 mm 1 mps 702 mmHg 50%
    15:00 +33°C° 0 mm 1 mps 701 mmHg 53%
    16:00 +31°C° 0 mm 0 mps 701 mmHg 56%
    17:00 +30°C° 1.1 mm 1 mps 701 mmHg 68%
    18:00 +27°C° 1.1 mm 1 mps 700 mmHg 80%
    19:00 +25°C° 1.1 mm 2 mps 700 mmHg 92%
    20:00 +24°C° 0 mm 2 mps 701 mmHg 92%
    21:00 +24°C° 0 mm 2 mps 702 mmHg 93%
    22:00 +24°C° 0 mm 1 mps 703 mmHg 94%
    23:00 +23°C° 0.1 mm 1 mps 703 mmHg 95%

    Day after tomorrow, 23 March, Saturday

    Time Temperature Precipitation Wind Pressure Humidity
    00:00 +23°C° 0.1 mm 1 mps 703 mmHg 95%
    01:00 +23°C° 0.1 mm 1 mps 703 mmHg 96%
    02:00 +23°C° 0.2 mm 1 mps 703 mmHg 97%
    03:00 +20°C° 0.2 mm 0 mps 702 mmHg 97%
    04:00 +20°C° 0.2 mm 0 mps 702 mmHg 98%
    05:00 +20°C° 2.2 mm 0 mps 703 mmHg 97%
    06:00 +20°C° 2.2 mm 0 mps 703 mmHg 97%
    07:00 +20°C° 2.2 mm 0 mps 704 mmHg 97%
    08:00 +23°C° 0.2 mm 1 mps 704 mmHg 95%
    09:00 +24°C° 0.2 mm 1 mps 704 mmHg 92%
    10:00 +25°C° 0.2 mm 2 mps 705 mmHg 90%
    11:00 +27°C° 0 mm 2 mps 704 mmHg 78%
    12:00 +29°C° 0 mm 2 mps 704 mmHg 65%
    13:00 +31°C° 0 mm 2 mps 703 mmHg 53%
    14:00 +31°C° 0 mm 2 mps 703 mmHg 52%
    15:00 +32°C° 0 mm 1 mps 702 mmHg 52%
    16:00 +32°C° 0 mm 1 mps 702 mmHg 52%
    17:00 +30°C° 0.4 mm 1 mps 702 mmHg 62%
    18:00 +27°C° 0.4 mm 1 mps 702 mmHg 73%
    19:00 +25°C° 0.4 mm 1 mps 702 mmHg 83%
    20:00 +25°C° 0 mm 1 mps 702 mmHg 86%
    21:00 +24°C° 0 mm 1 mps 703 mmHg 88%
    22:00 +24°C° 0 mm 1 mps 703 mmHg 91%
    23:00 +23°C° 0 mm 1 mps 703 mmHg 92%

    24 March, Sunday

    Time Temperature Precipitation Wind Pressure Humidity
    00:00 +23°C° 0 mm 1 mps 703 mmHg 94%
    01:00 +23°C° 0 mm 1 mps 703 mmHg 95%
    02:00 +22°C° 0 mm 1 mps 703 mmHg 96%
    03:00 +22°C° 0 mm 1 mps 702 mmHg 98%
    04:00 +22°C° 0 mm 1 mps 702 mmHg 99%
    05:00 +22°C° 0 mm 1 mps 703 mmHg 98%
    06:00 +22°C° 0 mm 1 mps 703 mmHg 97%
    07:00 +22°C° 0 mm 1 mps 703 mmHg 96%
    08:00 +25°C° 0 mm 1 mps 704 mmHg 83%
    09:00 +27°C° 0 mm 1 mps 705 mmHg 70%
    10:00 +30°C° 0 mm 1 mps 705 mmHg 58%
    11:00 +32°C° 0 mm 1 mps 705 mmHg 51%
    12:00 +33°C° 0 mm 1 mps 704 mmHg 45%
    13:00 +35°C° 0 mm 1 mps 704 mmHg 39%
    14:00 +34°C° 0 mm 1 mps 703 mmHg 44%
    15:00 +31°C° 0 mm 0 mps 702 mmHg 49%
    16:00 +29°C° 0 mm 0 mps 701 mmHg 55%
    17:00 +28°C° 0 mm 0 mps 701 mmHg 59%
    18:00 +27°C° 0 mm 0 mps 701 mmHg 63%
    19:00 +28°C° 0 mm 1 mps 702 mmHg 66%
    20:00 +26°C° 0.5 mm 1 mps 702 mmHg 75%
    21:00 +25°C° 0.5 mm 1 mps 702 mmHg 83%
    22:00 +24°C° 0.5 mm 1 mps 702 mmHg 92%
    23:00 +24°C° 0 mm 1 mps 702 mmHg 93%

    25 March, Monday

    Time Temperature Precipitation Wind Pressure Humidity
    00:00 +23°C° 0 mm 1 mps 702 mmHg 95%
    01:00 +23°C° 0 mm 1 mps 702 mmHg 97%
    02:00 +23°C° 0 mm 1 mps 702 mmHg 98%
    03:00 +22°C° 0 mm 1 mps 702 mmHg 98%
    04:00 +22°C° 0 mm 1 mps 702 mmHg 99%
    05:00 +22°C° 0 mm 1 mps 702 mmHg 98%
    06:00 +23°C° 0 mm 1 mps 703 mmHg 97%
    07:00 +23°C° 0 mm 1 mps 703 mmHg 96%
    08:00 +25°C° 0 mm 1 mps 704 mmHg 85%
    09:00 +28°C° 0 mm 1 mps 704 mmHg 73%
    10:00 +30°C° 0 mm 1 mps 705 mmHg 62%
    11:00 +32°C° 0 mm 1 mps 704 mmHg 56%
    12:00 +33°C° 0 mm 1 mps 704 mmHg 50%
    13:00 +35°C° 0 mm 1 mps 703 mmHg 44%
    14:00 +34°C° 0 mm 1 mps 703 mmHg 46%
    15:00 +34°C° 0 mm 1 mps 702 mmHg 47%
    16:00 +33°C° 0 mm 1 mps 701 mmHg 48%
    17:00 +32°C° 0 mm 1 mps 701 mmHg 55%
    18:00 +28°C° 0 mm 0 mps 702 mmHg 61%
    19:00 +26°C° 0 mm 0 mps 702 mmHg 68%
    20:00 +25°C° 0.8 mm 0 mps 702 mmHg 76%
    21:00 +25°C° 0.8 mm 1 mps 702 mmHg 85%
    22:00 +24°C° 0.8 mm 1 mps 703 mmHg 94%
    23:00 +24°C° 0 mm 1 mps 702 mmHg 95%

    26 March, Tuesday

    Time Temperature Precipitation Wind Pressure Humidity
    00:00 +23°C° 0 mm 1 mps 702 mmHg 96%
    01:00 +23°C° 0 mm 1 mps 702 mmHg 97%
    02:00 +23°C° 0 mm 1 mps 702 mmHg 98%
    03:00 +23°C° 0 mm 1 mps 702 mmHg 98%
    04:00 +20°C° 0 mm 0 mps 702 mmHg 99%
    05:00 +20°C° 0 mm 0 mps 702 mmHg 98%
    06:00 +21°C° 0 mm 0 mps 703 mmHg 98%
    07:00 +21°C° 0 mm 0 mps 703 mmHg 97%
    08:00 +23°C° 0 mm 0 mps 704 mmHg 84%
    09:00 +28°C° 0 mm 1 mps 704 mmHg 72%
    10:00 +30°C° 0 mm 1 mps 705 mmHg 59%
    11:00 +32°C° 0 mm 1 mps 704 mmHg 53%
    12:00 +35°C° 0 mm 1 mps 704 mmHg 47%
    13:00 +35°C° 0 mm 0 mps 703 mmHg 41%
    14:00 +34°C° 0 mm 0 mps 703 mmHg 43%
    15:00 +33°C° 0 mm 0 mps 702 mmHg 45%
    16:00 +32°C° 0 mm 0 mps 702 mmHg 47%
    17:00 +30°C° 0 mm 0 mps 702 mmHg 53%
    18:00 +28°C° 0 mm 0 mps 702 mmHg 59%
    19:00 +26°C° 0 mm 0 mps 703 mmHg 66%
    20:00 +25°C° 0.9 mm 0 mps 703 mmHg 75%
    21:00 +23°C° 0.9 mm 0 mps 703 mmHg 85%
    22:00 +24°C° 0.9 mm 1 mps 703 mmHg 95%
    23:00 +22°C° 0 mm 0 mps 703 mmHg 95%
    Show more